SVA326 HESH-OEJN

Flight info

Callsign SVA326
Flight time 1h 13m
Altitude 39000
Route SHM R650 HGD M872 WEJ T510 RBG B544 NOMDA
Aircraft A21N/M-SDE2E3FGHIRWY/L

Departure

Time 2026-04-30 18:30
Airport Sharm El Sheikh International Airport (HESH)

Arrival

Time 2026-04-30 19:44
Airport King Abdulaziz International Airport (OEJN)
Time Latitude Longitude Altitude Speed Heading
2026-04-30 17:57 27.97629 34.38513 178 ft 0 kts 132°
2026-04-30 18:18 27.97627 34.38515 177 ft 3 kts 123°
2026-04-30 18:18 27.97629 34.38541 177 ft 4 kts 75°
2026-04-30 18:18 27.97638 34.38565 177 ft 0 kts 64°
2026-04-30 18:23 27.97639 34.38566 177 ft 1 kts 63°
2026-04-30 18:23 27.97639 34.38568 177 ft 0 kts 63°
2026-04-30 18:24 27.97663 34.38542 177 ft 7 kts 278°
2026-04-30 18:24 27.97648 34.38480 177 ft 10 kts 237°
2026-04-30 18:24 27.97589 34.38415 177 ft 13 kts 221°
2026-04-30 18:25 27.97546 34.38418 177 ft 8 kts 128°
2026-04-30 18:25 27.97455 34.38527 177 ft 6 kts 137°
2026-04-30 18:25 27.97404 34.38520 178 ft 10 kts 215°
2026-04-30 18:26 27.97275 34.38386 177 ft 11 kts 223°
2026-04-30 18:26 27.97211 34.38319 177 ft 14 kts 222°
2026-04-30 18:26 27.97136 34.38242 177 ft 15 kts 221°
2026-04-30 18:27 27.97025 34.38134 178 ft 8 kts 207°
2026-04-30 18:27 27.96965 34.38153 179 ft 11 kts 143°
2026-04-30 18:28 27.96901 34.38225 179 ft 1 kts 133°
2026-04-30 18:28 27.96890 34.38241 179 ft 4 kts 118°
2026-04-30 18:28 27.96927 34.38335 179 ft 0 kts 43°
2026-04-30 18:29 27.96960 34.38368 179 ft 23 kts 43°
2026-04-30 18:30 27.98138 34.39576 299 ft 190 kts 41°
2026-04-30 18:30 28.00219 34.41693 2212 ft 214 kts 41°
2026-04-30 18:31 28.01400 34.42882 3071 ft 234 kts 41°
2026-04-30 18:31 28.03618 34.45150 4589 ft 226 kts 49°
2026-04-30 18:32 28.04276 34.48608 6340 ft 240 kts 105°
2026-04-30 18:32 28.03501 34.50301 7227 ft 245 kts 126°
2026-04-30 18:32 28.00753 34.52651 9018 ft 255 kts 151°
2026-04-30 18:33 27.99201 34.53659 9629 ft 260 kts 151°
2026-04-30 18:33 27.95741 34.55930 10299 ft 315 kts 151°
2026-04-30 18:33 27.93770 34.57244 10630 ft 341 kts 150°
2026-04-30 18:34 27.91628 34.58674 10964 ft 365 kts 150°
2026-04-30 18:34 27.87006 34.61788 11577 ft 405 kts 150°
2026-04-30 18:34 27.84570 34.63432 12157 ft 412 kts 150°
2026-04-30 18:35 27.82095 34.65100 12818 ft 416 kts 150°
2026-04-30 18:35 27.79641 34.66747 13453 ft 420 kts 150°
2026-04-30 18:35 27.77118 34.68440 14053 ft 424 kts 151°
2026-04-30 18:36 27.71989 34.71883 15113 ft 434 kts 151°
2026-04-30 18:36 27.69383 34.73630 15652 ft 438 kts 151°
2026-04-30 18:36 27.64077 34.77188 16677 ft 448 kts 152°
2026-04-30 18:37 27.61387 34.78992 17171 ft 452 kts 152°
2026-04-30 18:37 27.58668 34.80813 17669 ft 457 kts 152°
2026-04-30 18:37 27.55928 34.82645 18169 ft 461 kts 152°
2026-04-30 18:37 27.53156 34.84496 18609 ft 465 kts 152°
2026-04-30 18:38 27.50364 34.86359 19054 ft 469 kts 152°
2026-04-30 18:38 27.47533 34.88250 19537 ft 473 kts 152°
2026-04-30 18:38 27.44689 34.90149 20008 ft 477 kts 152°
2026-04-30 18:38 27.41822 34.92061 20488 ft 482 kts 152°
2026-04-30 18:39 27.38926 34.93994 20986 ft 486 kts 153°
2026-04-30 18:39 27.36004 34.95939 21493 ft 491 kts 153°
2026-04-30 18:39 27.33049 34.97903 22043 ft 496 kts 153°
2026-04-30 18:39 27.30062 34.99889 22580 ft 500 kts 153°
2026-04-30 18:40 27.27054 35.01889 23090 ft 505 kts 153°
2026-04-30 18:40 27.24076 35.03866 23534 ft 510 kts 153°
2026-04-30 18:40 27.20971 35.05931 23934 ft 514 kts 153°
2026-04-30 18:40 27.17882 35.07984 24337 ft 516 kts 153°
2026-04-30 18:41 27.14792 35.10036 24822 ft 517 kts 153°
2026-04-30 18:41 27.11733 35.12062 25319 ft 517 kts 153°
2026-04-30 18:41 27.08609 35.14132 25854 ft 516 kts 154°
2026-04-30 18:41 27.05510 35.16176 26364 ft 516 kts 154°
2026-04-30 18:42 27.02410 35.18215 26874 ft 515 kts 154°
2026-04-30 18:42 26.96235 35.22289 27866 ft 516 kts 154°
2026-04-30 18:42 26.93134 35.24340 28329 ft 517 kts 154°
2026-04-30 18:45 26.62320 35.44621 32906 ft 510 kts 155°
2026-04-30 18:45 26.59399 35.46880 33317 ft 516 kts 145°
2026-04-30 18:45 26.56843 35.49731 33728 ft 521 kts 133°
2026-04-30 18:46 26.55418 35.51956 33976 ft 524 kts 124°
2026-04-30 18:46 26.53302 35.56858 34383 ft 526 kts 114°
2026-04-30 18:46 26.52374 35.59362 34574 ft 526 kts 114°
2026-04-30 18:46 26.50981 35.63142 34842 ft 526 kts 115°
2026-04-30 18:47 26.49567 35.66914 35119 ft 526 kts 115°
2026-04-30 18:47 26.48139 35.70672 35378 ft 527 kts 116°
2026-04-30 18:47 26.46697 35.74435 35627 ft 527 kts 116°
2026-04-30 18:47 26.45235 35.78240 35869 ft 527 kts 117°
2026-04-30 18:48 26.43786 35.82008 36107 ft 528 kts 117°
2026-04-30 18:48 26.42339 35.85772 36337 ft 528 kts 117°
2026-04-30 18:48 26.40911 35.89485 36561 ft 528 kts 117°
2026-04-30 18:48 26.39464 35.93245 36781 ft 528 kts 118°
2026-04-30 18:49 26.38014 35.97010 37007 ft 528 kts 118°
2026-04-30 18:49 26.36562 36.00777 37200 ft 529 kts 118°
2026-04-30 18:49 26.35113 36.04532 37392 ft 529 kts 118°
2026-04-30 18:49 26.33634 36.08363 37576 ft 530 kts 119°
2026-04-30 18:50 26.32181 36.12120 37748 ft 530 kts 119°
2026-04-30 18:50 26.30737 36.15853 37940 ft 530 kts 119°
2026-04-30 18:50 26.29276 36.19623 38120 ft 531 kts 119°
2026-04-30 18:50 26.27813 36.23398 38343 ft 531 kts 120°
2026-04-30 18:51 26.26345 36.27184 38524 ft 532 kts 120°
2026-04-30 18:51 26.24877 36.30966 38719 ft 531 kts 120°
2026-04-30 18:51 26.23411 36.34737 38883 ft 530 kts 120°
2026-04-30 18:52 26.20487 36.42251 38897 ft 528 kts 120°
2026-04-30 18:52 26.17488 36.49686 38876 ft 523 kts 125°
2026-04-30 18:53 26.13960 36.56883 38882 ft 530 kts 126°
2026-04-30 18:53 26.10389 36.64106 38881 ft 535 kts 126°
2026-04-30 18:54 26.06815 36.71371 38873 ft 535 kts 126°
2026-04-30 18:54 26.03227 36.78622 38879 ft 535 kts 126°
2026-04-30 18:55 25.99631 36.85859 38885 ft 535 kts 126°
2026-04-30 18:55 25.94280 36.96680 38897 ft 536 kts 126°
2026-04-30 18:56 25.88867 37.07554 38897 ft 539 kts 126°
2026-04-30 18:57 25.83405 37.18524 38902 ft 542 kts 126°
2026-04-30 18:57 25.79134 37.25258 38881 ft 517 kts 145°
2026-04-30 18:58 25.73540 37.29888 38900 ft 497 kts 157°
2026-04-30 18:58 25.70653 37.32001 38901 ft 497 kts 157°
2026-04-30 18:59 25.62047 37.38431 38903 ft 498 kts 156°
2026-04-30 19:00 25.50636 37.47031 38911 ft 499 kts 156°
2026-04-30 19:01 25.39140 37.55671 38938 ft 500 kts 156°
2026-04-30 19:02 25.30490 37.62155 38930 ft 499 kts 156°
2026-04-30 19:03 25.18999 37.70755 38932 ft 499 kts 156°
2026-04-30 19:04 25.07506 37.79356 38929 ft 499 kts 155°
2026-04-30 19:05 24.95991 37.87956 38929 ft 500 kts 155°
2026-04-30 19:06 24.84470 37.96537 38916 ft 499 kts 155°
2026-04-30 19:06 24.75830 38.02947 38896 ft 502 kts 155°
2026-04-30 19:07 24.67178 38.09361 38875 ft 499 kts 155°
2026-04-30 19:08 24.55673 38.17904 38871 ft 499 kts 155°
2026-04-30 19:09 24.47032 38.24282 38862 ft 498 kts 155°
2026-04-30 19:09 24.41281 38.28535 38856 ft 497 kts 155°
2026-04-30 19:10 24.29860 38.36946 38850 ft 496 kts 155°
2026-04-30 19:11 24.21288 38.43251 38870 ft 494 kts 155°
2026-04-30 19:12 24.15583 38.47433 38900 ft 493 kts 155°
2026-04-30 19:12 24.09889 38.51602 38916 ft 492 kts 155°
2026-04-30 19:13 23.98543 38.59904 38919 ft 490 kts 155°
2026-04-30 19:14 23.92874 38.64042 38922 ft 489 kts 155°
2026-04-30 19:14 23.87222 38.68165 38933 ft 489 kts 155°
2026-04-30 19:15 23.81577 38.72274 38933 ft 487 kts 155°
2026-04-30 19:15 23.73109 38.78207 38925 ft 476 kts 163°
2026-04-30 19:16 23.66972 38.80534 38939 ft 462 kts 172°
2026-04-30 19:17 23.57728 38.83561 38935 ft 462 kts 172°
2026-04-30 19:17 23.48508 38.86644 38932 ft 462 kts 172°
2026-04-30 19:18 23.40296 38.89393 38932 ft 461 kts 171°
2026-04-30 19:19 23.34165 38.91443 38932 ft 461 kts 171°
2026-04-30 19:19 23.24987 38.94506 38924 ft 460 kts 171°
2026-04-30 19:20 23.18921 38.96527 38921 ft 460 kts 171°
2026-04-30 19:20 23.12852 38.98545 38914 ft 449 kts 172°
2026-04-30 19:21 23.09879 38.99532 38751 ft 443 kts 172°
2026-04-30 19:21 23.03978 39.01487 37118 ft 450 kts 172°
2026-04-30 19:22 22.97932 39.03493 35369 ft 459 kts 172°
2026-04-30 19:22 22.88631 39.06581 32550 ft 471 kts 171°
2026-04-30 19:23 22.79006 39.09570 29145 ft 483 kts 177°
2026-04-30 19:24 22.72321 39.09929 26768 ft 483 kts 184°
2026-04-30 19:24 22.68946 39.09995 25569 ft 487 kts 184°
2026-04-30 19:24 22.62112 39.10212 23044 ft 497 kts 182°
2026-04-30 19:25 22.52027 39.10554 20749 ft 474 kts 182°
2026-04-30 19:26 22.45661 39.10638 19982 ft 440 kts 184°
2026-04-30 19:26 22.39776 39.10640 19500 ft 406 kts 184°
2026-04-30 19:26 22.36989 39.10653 19091 ft 397 kts 183°
2026-04-30 19:27 22.31499 39.10684 17772 ft 392 kts 183°
2026-04-30 19:27 22.26096 39.10711 16468 ft 384 kts 183°
2026-04-30 19:28 22.23435 39.10720 15848 ft 381 kts 183°
2026-04-30 19:28 22.18188 39.10746 14820 ft 372 kts 183°
2026-04-30 19:29 22.13039 39.10772 13625 ft 368 kts 183°
2026-04-30 19:29 22.10488 39.10804 12991 ft 366 kts 180°
2026-04-30 19:30 22.03216 39.13227 11183 ft 364 kts 161°
2026-04-30 19:30 21.98553 39.15134 10062 ft 359 kts 161°
2026-04-30 19:31 21.93902 39.16986 8937 ft 353 kts 161°
2026-04-30 19:31 21.91607 39.17896 8406 ft 350 kts 161°
2026-04-30 19:31 21.87134 39.19667 7726 ft 332 kts 161°
2026-04-30 19:32 21.85005 39.20508 7535 ft 320 kts 161°
2026-04-30 19:32 21.82950 39.21319 7376 ft 308 kts 161°
2026-04-30 19:32 21.80971 39.22099 7237 ft 296 kts 162°
2026-04-30 19:32 21.79078 39.22841 7106 ft 285 kts 162°
2026-04-30 19:33 21.77255 39.23551 6876 ft 272 kts 162°
2026-04-30 19:33 21.75515 39.24230 6633 ft 261 kts 162°
2026-04-30 19:33 21.73828 39.24889 6233 ft 256 kts 162°
2026-04-30 19:33 21.72155 39.25543 5877 ft 255 kts 162°
2026-04-30 19:34 21.70493 39.26202 5520 ft 255 kts 162°
2026-04-30 19:34 21.68811 39.26868 5160 ft 254 kts 161°
2026-04-30 19:34 21.65497 39.28182 4442 ft 254 kts 161°
2026-04-30 19:35 21.63843 39.28837 4156 ft 251 kts 161°
2026-04-30 19:35 21.62244 39.29469 3852 ft 248 kts 161°
2026-04-30 19:35 21.60624 39.30106 3514 ft 247 kts 161°
2026-04-30 19:35 21.58995 39.30743 3177 ft 247 kts 161°
2026-04-30 19:36 21.57369 39.31381 3007 ft 249 kts 160°
2026-04-30 19:36 21.55740 39.32020 2975 ft 248 kts 161°
2026-04-30 19:36 21.52497 39.33262 3000 ft 248 kts 167°
2026-04-30 19:37 21.50831 39.33293 2983 ft 231 kts 195°
2026-04-30 19:37 21.49472 39.32631 3029 ft 200 kts 218°
2026-04-30 19:37 21.48601 39.31597 3033 ft 176 kts 240°
2026-04-30 19:37 21.48140 39.30484 2985 ft 154 kts 257°
2026-04-30 19:38 21.47991 39.29370 2984 ft 149 kts 272°
2026-04-30 19:38 21.48115 39.28263 2998 ft 153 kts 285°
2026-04-30 19:38 21.48534 39.27204 3010 ft 154 kts 302°
2026-04-30 19:38 21.49156 39.26260 3015 ft 155 kts 308°
2026-04-30 19:39 21.49891 39.25415 3013 ft 155 kts 318°
2026-04-30 19:39 21.50747 39.24728 3005 ft 149 kts 326°
2026-04-30 19:39 21.51633 39.24185 2600 ft 148 kts 332°
2026-04-30 19:39 21.52582 39.23704 2222 ft 152 kts 336°
2026-04-30 19:40 21.53563 39.23262 2257 ft 153 kts 338°
2026-04-30 19:40 21.54530 39.22850 2319 ft 151 kts 339°
2026-04-30 19:40 21.55491 39.22463 2279 ft 142 kts 340°
2026-04-30 19:40 21.56406 39.22099 2152 ft 139 kts 340°
2026-04-30 19:41 21.57317 39.21739 1984 ft 140 kts 340°
2026-04-30 19:41 21.58221 39.21382 1802 ft 137 kts 341°
2026-04-30 19:41 21.59111 39.21030 1618 ft 135 kts 341°
2026-04-30 19:41 21.59998 39.20679 1428 ft 136 kts 341°
2026-04-30 19:42 21.60861 39.20338 1246 ft 125 kts 341°
2026-04-30 19:42 21.61564 39.20060 1098 ft 130 kts 341°
2026-04-30 19:42 21.62434 39.19716 955 ft 134 kts 341°
2026-04-30 19:42 21.63298 39.19374 779 ft 132 kts 341°
2026-04-30 19:43 21.64158 39.19034 587 ft 131 kts 341°
2026-04-30 19:43 21.65011 39.18699 435 ft 131 kts 341°
2026-04-30 19:43 21.65867 39.18350 278 ft 132 kts 340°
2026-04-30 19:44 21.67562 39.17690 59 ft 116 kts 339°
2026-04-30 19:44 21.68123 39.17467 54 ft 62 kts 339°
2026-04-30 19:44 21.68344 39.17307 52 ft 19 kts 309°
2026-04-30 19:44 21.68395 39.17238 52 ft 2 kts 309°
2026-04-30 19:45 21.68410 39.17218 52 ft 5 kts 308°
2026-04-30 19:45 21.68431 39.17178 50 ft 8 kts 289°
2026-04-30 19:45 21.68434 39.17170 52 ft 1 kts 290°
2026-04-30 19:45 21.68435 39.17154 52 ft 4 kts 254°
2026-04-30 19:46 21.68404 39.17138 52 ft 7 kts 185°
2026-04-30 19:46 21.68349 39.17144 53 ft 9 kts 165°
2026-04-30 19:46 21.68278 39.17170 53 ft 12 kts 156°
2026-04-30 19:46 21.68191 39.17211 52 ft 15 kts 158°
2026-04-30 19:47 21.68086 39.17255 55 ft 17 kts 160°
2026-04-30 19:47 21.68006 39.17285 55 ft 19 kts 161°
2026-04-30 19:47 21.67829 39.17350 56 ft 22 kts 161°
2026-04-30 19:47 21.67689 39.17403 52 ft 15 kts 160°
2026-04-30 19:48 21.67587 39.17446 53 ft 17 kts 158°
2026-04-30 19:48 21.67481 39.17493 57 ft 10 kts 158°
2026-04-30 19:48 21.67451 39.17506 55 ft 0 kts 158°
2026-04-30 19:48 21.67442 39.17509 59 ft 3 kts 162°
2026-04-30 19:49 21.67415 39.17518 56 ft 5 kts 162°
2026-04-30 19:49 21.67307 39.17555 55 ft 11 kts 162°
2026-04-30 19:49 21.67228 39.17584 57 ft 13 kts 160°
2026-04-30 19:50 21.67133 39.17620 57 ft 16 kts 160°
2026-04-30 19:50 21.67044 39.17656 59 ft 6 kts 161°
2026-04-30 19:50 21.66995 39.17643 57 ft 9 kts 218°
2026-04-30 19:50 21.66961 39.17577 59 ft 11 kts 250°
2026-04-30 19:51 21.66932 39.17492 56 ft 13 kts 250°
2026-04-30 19:51 21.66910 39.17428 54 ft 14 kts 249°
2026-04-30 19:51 21.66879 39.17349 51 ft 4 kts 247°
2026-04-30 19:51 21.66862 39.17321 56 ft 5 kts 223°
2026-04-30 19:52 21.66820 39.17313 56 ft 8 kts 171°
2026-04-30 19:52 21.66759 39.17329 53 ft 10 kts 164°
2026-04-30 19:52 21.66682 39.17352 51 ft 13 kts 164°
2026-04-30 19:52 21.66642 39.17365 55 ft 1 kts 176°
2026-04-30 19:53 21.66625 39.17351 54 ft 5 kts 246°
2026-04-30 19:53 21.66612 39.17305 52 ft 4 kts 253°
2026-04-30 19:53 21.66607 39.17286 54 ft 2 kts 255°
2026-04-30 19:53 21.66604 39.17277 54 ft 0 kts 254°
2026-04-30 19:54 21.66604 39.17276 54 ft 0 kts 254°